Погода в Мучкапском

Россия / Тамбовская область     51°50′49″N   42°28′07″E
темп.,
°C
ветер,
м/с
пор.,
м/с
влажн.,
%
обл.,
%
осадки,
мм/ч
давл.,
гПа
погр.,
м
14 апреля, ср
ср1400:00+11вюв412636 0.0 1025183
03:00+9вюв4116665 0.0 1024174
06:00+8в41164100 0.0 1023173
09:00+14вюв6104499 0.0 1023422
12:00+19юв683197 0.0 10211022
15:00+20юв6727100 0.0 10191543
18:00+17вюв4742100 0.0 1019148
21:00+13в3554100 0.0 101962
15 апреля, чт
чт1500:00+11вюв486498 0.0 1018137
03:00+9в49704 0.0 1017140
06:00+8в387371 0.0 1017133
09:00+14вюв475371 0.0 1016408
12:00+19ююв453873 0.0 10151081
15:00+21ююв34316 0.0 10151659
18:00+19зюз2241100 0.0 101420
21:00+15сз2251100 0.0 101511
16 апреля, пт
пт1600:00+11зсз346960 0.0 101565
03:00+10сз3375100 0.0 101543
06:00+10сз2378100 0.0 101656
09:00+15сз125892 0.0 1017385
12:00+18зсз224581 0.0 10171158
15:00+20вюв133548 0.0 10172575
18:00+19в344078 0.0 1016123
21:00+13зсз577095 0.0 1018197
17 апреля, сб
сб1700:00+12ссв347418 0.0 101882
03:00+11всв4106992 0.0 1018205
06:00+10всв5127154 0.0 1018288
09:00+15вюв7105362 0.0 1018762
12:00+19вюв7104492 0.1 10182178
15:00+11юз7987100 4.3 1020434
18:00+10ююз3990100 3.8 1021474
21:00+10всв3494100 9.2 1022280
18 апреля, вс
вс1800:00+9всв3795100 1.2 1022412
03:00+9в5984100 3.4 1022482
06:00+8всв51079100 0.1 1022458
09:00+6всв61192100 2.0 1023454
12:00+7всв1481100 4.8 1025208
15:00+13всв4654100 4.8 10241427
18:00+12всв3564100 0.0 1024101
21:00+9всв1277100 0.1 102570